sat.trackr.live / text

‹ back to catalog

YAM-8

NORAD 63254 · 2025-052AW

PAYLOAD ACTIVE UNKNOWN

§ Identity

Operator
Country
US
Launch date
2025-03-15
Launch site
AFWTR
Launch vehicle
Mass (kg)
RCS (m²)

External: N2YO · Heavens-Above · Gunter

§ Orbital elements

Epoch: 2026-05-25T04:49:48.245376Z

Period
95.26 min
Inclination
97.6962°
Eccentricity
0.0000918
Mean motion
15.11647471 rev/d
Perigee alt
530.5 km
Apogee alt
531.8 km
Semi-major
6,909.3 km
B*
2.9500e-4
RAAN
46.5219°
Arg perigee
316.3403°
Mean anomaly
43.7754°
Rev number
6,579

§ Raw data

YAM-81 63254U 25052AW  26145.20125284  .00004949  00000+0  29500-3 0  99902 63254  97.6962  46.5219 0000918 316.3403  43.7754 15.11647471 65790

JSON: /api/v1/satellites/63254 · /tle

For live sub-satellite position, see the globe view (requires WebGL).

§ Visibility from observer

Set your observer location to see the next 7 days of passes ≥ 10°. The values pass through the URL so the page stays shareable.

No JS? Fill the form by hand. The geolocation button needs JavaScript.

§ Radio — SatNOGS DB

ModeDescriptionDownlinkUplink
BPSK S-band telemetry 2.248 GHz

1 transmitter · refreshed weekly from db.satnogs.org